Location: Coopersdale
(40.3556°N, 78.9372°W)
Time: 02:22:33
(UTC+00:00)

Tiros 1 despin weight - Pass Details

Date: 26 January 2021
Orbit: 593 x 642 km, 48.2° (Epoch: 02 March)

Event Time Altitude Azimuth Distance (km) Brightness Sun altitude
Rises 17:11:53 0° 201° (SSW) 2,906 ? 31.0°
Reaches altitude 10° 17:14:36 10° 186° (S) 1,994 ? 31.0°
Maximum altitude 17:18:09 22° 135° (SE) 1,356 ? 31.1°
Drops below altitude 10° 17:21:40 10° 84° (E) 1,979 ? 31.1°
Sets 17:24:21 0° 70° (ENE) 2,878 ? 31.1°
